| time (UTC) | temp F | wind direction | speed MPH | gust MPH | rain 1hr in | rain 24hr in | rain mn in | humidity % | barometer mb |
| 20260504050530 | 51 | 0 | 2.0 | 3.0 | 0.00 | 0.00 | 0.00 | 66 | 1017.4 |
| 20260504045528 | 50 | 0 | 0.0 | 1.0 | 0.00 | 0.05 | 0.00 | 69 | 1017.4 |
| 20260504045027 | 50 | 0 | 0.0 | 3.0 | 0.00 | 0.05 | 0.00 | 70 | 1017.3 |
| 20260504044557 | 49 | 0 | 0.0 | 3.0 | 0.00 | 0.05 | 0.00 | 71 | 1017.3 |
| 20260504044028 | 49 | 0 | 1.0 | 3.0 | 0.00 | 0.05 | 0.00 | 71 | 1017.2 |
| 20260504043528 | 49 | 0 | 1.0 | 4.0 | 0.00 | 0.05 | 0.00 | 69 | 1017.2 |
| 20260504043040 | 48 | 191 | 1.0 | 4.0 | 0.00 | 0.05 | 0.00 | 71 | 1017.2 |
| 20260504042527 | 48 | 196 | 2.0 | 4.0 | 0.00 | 0.05 | 0.00 | 72 | 1017.2 |
| 20260504042027 | 48 | 225 | 1.0 | 3.0 | 0.00 | 0.05 | 0.00 | 72 | 1017.1 |
| 20260504041535 | 48 | 238 | 0.0 | 4.0 | 0.00 | 0.05 | 0.00 | 72 | 1017.1 |
| 20260504041027 | 47 | 238 | 1.0 | 5.0 | 0.00 | 0.05 | 0.00 | 73 | 1017.1 |
| 20260504040530 | 47 | 239 | 2.0 | 5.0 | 0.00 | 0.05 | 0.00 | 72 | 1017.1 |
| 20260504040040 | 47 | 239 | 0.0 | 1.0 | 0.00 | 0.05 | 0.00 | 72 | 1017.0 |
| 20260504035528 | 48 | 0 | 0.0 | 0.0 | 0.00 | 0.05 | 0.00 | 70 | 1016.8 |
| 20260504035029 | 48 | 0 | 0.0 | 0.0 | 0.00 | 0.05 | 0.00 | 71 | 1016.8 |
| 20260504034551 | 47 | 0 | 0.0 | 1.0 | 0.00 | 0.05 | 0.00 | 72 | 1016.8 |
| 20260504034027 | 47 | 0 | 0.0 | 3.0 | 0.00 | 0.05 | 0.00 | 73 | 1016.8 |
| 20260504033527 | 47 | 0 | 1.0 | 3.0 | 0.00 | 0.05 | 0.00 | 73 | 1016.8 |
| 20260504033052 | 47 | 72 | 1.0 | 3.0 | 0.00 | 0.05 | 0.00 | 71 | 1016.8 |
| 20260504032527 | 48 | 0 | 0.0 | 0.0 | 0.00 | 0.05 | 0.00 | 70 | 1016.8 |
| 20260504032029 | 48 | 0 | 0.0 | 3.0 | 0.00 | 0.05 | 0.00 | 69 | 1016.9 |
| 20260504031541 | 48 | 0 | 0.0 | 4.0 | 0.00 | 0.05 | 0.00 | 69 | 1016.8 |
| 20260504031027 | 48 | 71 | 2.0 | 6.0 | 0.00 | 0.05 | 0.00 | 69 | 1016.8 |
| 20260504030527 | 48 | 73 | 2.0 | 6.0 | 0.00 | 0.05 | 0.00 | 69 | 1016.8 |
| 20260504030038 | 48 | 83 | 3.0 | 6.0 | 0.00 | 0.05 | 0.00 | 69 | 1016.7 |
| 20260504025527 | 48 | 146 | 0.0 | 4.0 | 0.00 | 0.05 | 0.00 | 69 | 1016.8 |
| 20260504025029 | 48 | 0 | 0.0 | 0.0 | 0.00 | 0.05 | 0.00 | 70 | 1016.6 |
| 20260504024544 | 47 | 0 | 0.0 | 2.0 | 0.00 | 0.05 | 0.00 | 70 | 1016.6 |
| 20260504024027 | 47 | 0 | 0.0 | 5.0 | 0.00 | 0.05 | 0.00 | 70 | 1016.8 |
| 20260504023525 | 47 | 0 | 1.0 | 5.0 | 0.00 | 0.05 | 0.00 | 70 | 1016.8 |
| 20260504023037 | 47 | 151 | 3.0 | 5.0 | 0.00 | 0.05 | 0.00 | 70 | 1016.8 |
| 20260504022525 | 47 | 0 | 0.0 | 2.0 | 0.00 | 0.05 | 0.00 | 70 | 1016.8 |
| 20260504022022 | 47 | 0 | 0.0 | 5.0 | 0.00 | 0.05 | 0.00 | 70 | 1016.8 |
| 20260504021540 | 47 | 165 | 0.0 | 5.0 | 0.00 | 0.05 | 0.00 | 70 | 1016.8 |
| 20260504021022 | 47 | 167 | 2.0 | 5.0 | 0.00 | 0.05 | 0.00 | 69 | 1016.7 |
| 20260504020522 | 47 | 167 | 0.0 | 5.0 | 0.00 | 0.05 | 0.00 | 68 | 1016.9 |
| 20260504020036 | 47 | 167 | 3.0 | 5.0 | 0.00 | 0.05 | 0.00 | 68 | 1016.9 |
| 20260504015526 | 47 | 172 | 2.0 | 5.0 | 0.00 | 0.05 | 0.00 | 69 | 1016.9 |
| 20260504015025 | 47 | 107 | 1.0 | 3.0 | 0.00 | 0.05 | 0.00 | 68 | 1016.9 |
| 20260504014539 | 48 | 0 | 0.0 | 3.0 | 0.00 | 0.05 | 0.00 | 67 | 1017.0 |
| 20260504014022 | 48 | 44 | 1.0 | 4.0 | 0.00 | 0.05 | 0.00 | 67 | 1017.0 |
| 20260504013525 | 48 | 0 | 0.0 | 4.0 | 0.00 | 0.05 | 0.00 | 65 | 1016.8 |
| 20260504013042 | 48 | 42 | 2.0 | 5.0 | 0.00 | 0.05 | 0.00 | 67 | 1016.9 |
| 20260504012525 | 47 | 0 | 0.0 | 5.0 | 0.00 | 0.05 | 0.00 | 67 | 1016.8 |
| 20260504012027 | 47 | 49 | 1.0 | 3.0 | 0.00 | 0.05 | 0.00 | 67 | 1016.9 |
| 20260504011537 | 47 | 0 | 0.0 | 0.0 | 0.00 | 0.05 | 0.00 | 67 | 1017.0 |
| 20260504011021 | 47 | 0 | 0.0 | 6.0 | 0.00 | 0.05 | 0.00 | 67 | 1016.9 |
| 20260504010525 | 47 | 0 | 1.0 | 6.0 | 0.00 | 0.05 | 0.00 | 67 | 1016.9 |
| 20260504010052 | 47 | 168 | 2.0 | 5.0 | 0.00 | 0.05 | 0.00 | 66 | 1016.8 |
| 20260504005522 | 48 | 155 | 1.0 | 4.0 | 0.00 | 0.05 | 0.00 | 65 | 1016.9 |
| 20260504005022 | 48 | 0 | 1.0 | 3.0 | 0.00 | 0.05 | 0.00 | 66 | 1017.0 |
| 20260504004536 | 48 | 155 | 2.0 | 3.0 | 0.00 | 0.05 | 0.00 | 65 | 1016.9 |
| 20260504004021 | 48 | 0 | 1.0 | 5.0 | 0.00 | 0.05 | 0.00 | 65 | 1016.9 |
| 20260504003521 | 48 | 155 | 2.0 | 7.0 | 0.00 | 0.05 | 0.00 | 65 | 1016.9 |
| 20260504003035 | 48 | 159 | 1.0 | 7.0 | 0.00 | 0.05 | 0.00 | 65 | 1016.9 |
| 20260504002525 | 48 | 161 | 5.0 | 7.0 | 0.00 | 0.05 | 0.00 | 65 | 1016.8 |
| 20260504002025 | 47 | 159 | 5.0 | 6.0 | 0.00 | 0.05 | 0.00 | 66 | 1016.8 |
| 20260504001541 | 48 | 169 | 3.0 | 6.0 | 0.00 | 0.05 | 0.00 | 66 | 1016.8 |
| 20260504001025 | 47 | 167 | 3.0 | 7.0 | 0.00 | 0.05 | 0.00 | 66 | 1016.9 |
| 20260504000525 | 48 | 188 | 3.0 | 7.0 | 0.00 | 0.05 | 0.00 | 66 | 1016.9 |
| 20260504000044 | 48 | 157 | 5.0 | 7.0 | 0.00 | 0.05 | 0.00 | 66 | 1016.9 |
| 20260503235522 | 48 | 163 | 4.0 | 6.0 | 0.00 | 0.05 | 0.00 | 66 | 1017.1 |
| 20260503235022 | 47 | 163 | 3.0 | 5.0 | 0.00 | 0.05 | 0.00 | 67 | 1016.9 |
| 20260503234539 | 47 | 169 | 3.0 | 7.0 | 0.00 | 0.05 | 0.00 | 67 | 1016.8 |
| 20260503234023 | 47 | 180 | 3.0 | 7.0 | 0.00 | 0.05 | 0.00 | 67 | 1016.9 |
| 20260503233525 | 47 | 165 | 3.0 | 6.0 | 0.00 | 0.05 | 0.00 | 67 | 1016.8 |
| 20260503233108 | 47 | 159 | 3.0 | 5.0 | 0.00 | 0.05 | 0.00 | 67 | 1017.0 |
| 20260503232526 | 47 | 171 | 2.0 | 4.0 | 0.00 | 0.05 | 0.00 | 67 | 1017.0 |
| 20260503232027 | 47 | 182 | 1.0 | 4.0 | 0.00 | 0.05 | 0.00 | 68 | 1016.9 |
| 20260503231538 | 48 | 169 | 2.0 | 4.0 | 0.00 | 0.05 | 0.00 | 67 | 1016.9 |
| 20260503231027 | 48 | 270 | 1.0 | 3.0 | 0.00 | 0.05 | 0.00 | 67 | 1016.9 |
| 20260503230527 | 48 | 281 | 0.0 | 1.0 | 0.00 | 0.05 | 0.00 | 66 | 1016.8 |
| 20260503230044 | 49 | 0 | 0.0 | 2.0 | 0.00 | 0.05 | 0.00 | 64 | 1016.9 |
| 20260503225527 | 49 | 0 | 0.0 | 2.0 | 0.00 | 0.05 | 0.00 | 63 | 1017.0 |
| 20260503225027 | 49 | 0 | 0.0 | 4.0 | 0.00 | 0.05 | 0.00 | 63 | 1017.0 |
| 20260503224542 | 49 | 0 | 1.0 | 4.0 | 0.00 | 0.05 | 0.00 | 63 | 1017.0 |
| 20260503224027 | 49 | 0 | 1.0 | 4.0 | 0.00 | 0.05 | 0.00 | 62 | 1017.0 |
| 20260503223527 | 49 | 292 | 2.0 | 4.0 | 0.00 | 0.05 | 0.00 | 62 | 1017.1 |
| 20260503223040 | 50 | 263 | 1.0 | 7.0 | 0.00 | 0.05 | 0.00 | 62 | 1017.0 |
| 20260503222526 | 50 | 271 | 1.0 | 7.0 | 0.00 | 0.05 | 0.00 | 62 | 1017.0 |
| 20260503222027 | 50 | 284 | 2.0 | 7.0 | 0.00 | 0.05 | 0.00 | 62 | 1017.1 |
| 20260503221541 | 50 | 257 | 3.0 | 7.0 | 0.00 | 0.05 | 0.00 | 62 | 1017.1 |
| 20260503221026 | 50 | 270 | 3.0 | 7.0 | 0.00 | 0.05 | 0.00 | 62 | 1017.1 |
| 20260503220528 | 50 | 280 | 3.0 | 7.0 | 0.00 | 0.05 | 0.00 | 62 | 1017.1 |
| 20260503220103 | 50 | 257 | 0.0 | 6.0 | 0.00 | 0.05 | 0.00 | 62 | 1017.2 |
| 20260503215526 | 50 | 257 | 1.0 | 6.0 | 0.00 | 0.06 | 0.00 | 62 | 1017.1 |
| 20260503215026 | 50 | 284 | 2.0 | 6.0 | 0.00 | 0.06 | 0.00 | 62 | 1017.2 |
| 20260503214545 | 50 | 260 | 1.0 | 6.0 | 0.00 | 0.06 | 0.00 | 62 | 1017.1 |
| 20260503214027 | 50 | 0 | 0.0 | 7.0 | 0.00 | 0.06 | 0.00 | 62 | 1017.2 |
| 20260503213529 | 50 | 257 | 2.0 | 7.0 | 0.00 | 0.06 | 0.00 | 62 | 1017.1 |
| 20260503213039 | 50 | 252 | 3.0 | 7.0 | 0.00 | 0.06 | 0.00 | 62 | 1017.1 |
| 20260503212529 | 50 | 251 | 2.0 | 5.0 | 0.00 | 0.06 | 0.00 | 62 | 1017.1 |
| 20260503212027 | 50 | 223 | 1.0 | 7.0 | 0.00 | 0.06 | 0.00 | 62 | 1017.1 |
| 20260503211545 | 50 | 242 | 2.0 | 7.0 | 0.00 | 0.06 | 0.00 | 62 | 1017.0 |
| 20260503211026 | 50 | 244 | 1.0 | 5.0 | 0.00 | 0.06 | 0.00 | 62 | 1017.1 |
| 20260503210527 | 50 | 239 | 2.0 | 5.0 | 0.00 | 0.06 | 0.00 | 61 | 1017.1 |
| 20260503210037 | 50 | 242 | 2.0 | 7.0 | 0.00 | 0.06 | 0.00 | 61 | 1017.1 |
| 20260503205527 | 50 | 250 | 4.0 | 8.0 | 0.00 | 0.06 | 0.06 | 61 | 1017.1 |
| 20260503205029 | 50 | 246 | 2.0 | 8.0 | 0.00 | 0.06 | 0.06 | 61 | 1017.2 |
| 20260503204547 | 50 | 238 | 2.0 | 9.0 | 0.00 | 0.06 | 0.06 | 61 | 1017.2 |
| 20260503204027 | 51 | 269 | 3.0 | 9.0 | 0.00 | 0.06 | 0.06 | 60 | 1017.2 |
| 20260503203526 | 51 | 264 | 5.0 | 9.0 | 0.00 | 0.06 | 0.06 | 60 | 1017.2 |
| 20260503203038 | 51 | 257 | 3.0 | 8.0 | 0.00 | 0.06 | 0.06 | 60 | 1017.3 |
| 20260503202527 | 51 | 233 | 2.0 | 9.0 | 0.00 | 0.06 | 0.06 | 60 | 1017.2 |
| 20260503202027 | 51 | 252 | 3.0 | 9.0 | 0.00 | 0.06 | 0.06 | 60 | 1017.3 |
| 20260503201558 | 51 | 269 | 3.0 | 10.0 | 0.00 | 0.06 | 0.06 | 60 | 1017.2 |
| 20260503201028 | 51 | 271 | 5.0 | 10.0 | 0.00 | 0.06 | 0.06 | 60 | 1017.3 |
| 20260503200526 | 51 | 288 | 4.0 | 10.0 | 0.00 | 0.06 | 0.06 | 60 | 1017.2 |
| 20260503200037 | 51 | 286 | 3.0 | 8.0 | 0.00 | 0.06 | 0.06 | 60 | 1017.2 |
| 20260503195528 | 51 | 282 | 1.0 | 8.0 | 0.00 | 0.06 | 0.06 | 60 | 1017.2 |
| 20260503195026 | 51 | 268 | 2.0 | 8.0 | 0.00 | 0.06 | 0.06 | 60 | 1017.2 |
| 20260503194537 | 51 | 286 | 3.0 | 8.0 | 0.00 | 0.06 | 0.06 | 59 | 1017.2 |
| 20260503194027 | 51 | 287 | 2.0 | 7.0 | 0.00 | 0.06 | 0.06 | 59 | 1017.2 |
| 20260503193530 | 51 | 0 | 1.0 | 7.0 | 0.00 | 0.06 | 0.06 | 59 | 1017.1 |
| 20260503193049 | 51 | 0 | 3.0 | 7.0 | 0.00 | 0.06 | 0.06 | 60 | 1017.1 |
| 20260503192526 | 51 | 269 | 1.0 | 6.0 | 0.00 | 0.06 | 0.06 | 60 | 1017.0 |
| 20260503192027 | 51 | 292 | 2.0 | 10.0 | 0.00 | 0.06 | 0.06 | 59 | 1017.0 |
| 20260503191539 | 51 | 273 | 5.0 | 11.0 | 0.00 | 0.06 | 0.06 | 60 | 1017.0 |
| 20260503191027 | 51 | 297 | 4.0 | 11.0 | 0.00 | 0.06 | 0.06 | 60 | 1017.0 |
| 20260503190527 | 51 | 312 | 6.0 | 11.0 | 0.00 | 0.06 | 0.06 | 59 | 1017.0 |
| 20260503190037 | 51 | 290 | 5.0 | 12.0 | 0.00 | 0.06 | 0.06 | 59 | 1016.9 |
| 20260503185526 | 51 | 277 | 6.0 | 12.0 | 0.00 | 0.06 | 0.06 | 58 | 1016.7 |
| 20260503185026 | 51 | 307 | 1.0 | 7.0 | 0.00 | 0.06 | 0.06 | 59 | 1016.8 |
| 20260503184538 | 51 | 284 | 1.0 | 5.0 | 0.00 | 0.06 | 0.06 | 59 | 1016.7 |
| 20260503184027 | 51 | 340 | 0.0 | 4.0 | 0.00 | 0.06 | 0.06 | 59 | 1016.7 |
| 20260503183528 | 51 | 0 | 1.0 | 7.0 | 0.00 | 0.06 | 0.06 | 59 | 1016.6 |
| 20260503183040 | 52 | 317 | 2.0 | 7.0 | 0.00 | 0.06 | 0.06 | 58 | 1016.5 |
| 20260503182526 | 51 | 315 | 2.0 | 6.0 | 0.00 | 0.06 | 0.06 | 59 | 1016.4 |
| 20260503182027 | 51 | 312 | 1.0 | 7.0 | 0.00 | 0.06 | 0.06 | 59 | 1016.3 |
| 20260503181611 | 51 | 309 | 2.0 | 11.0 | 0.00 | 0.06 | 0.06 | 59 | 1016.3 |
| 20260503181028 | 51 | 360 | 5.0 | 11.0 | 0.00 | 0.06 | 0.06 | 59 | 1016.2 |
| 20260503180530 | 51 | 355 | 3.0 | 11.0 | 0.00 | 0.06 | 0.06 | 60 | 1016.2 |
| 20260503180041 | 51 | 317 | 6.0 | 12.0 | 0.00 | 0.06 | 0.06 | 60 | 1016.2 |
| 20260503175526 | 51 | 301 | 6.0 | 12.0 | 0.00 | 0.06 | 0.06 | 60 | 1016.1 |
| 20260503175026 | 51 | 332 | 4.0 | 14.0 | 0.00 | 0.06 | 0.06 | 60 | 1016.1 |
| 20260503174537 | 52 | 342 | 5.0 | 14.0 | 0.00 | 0.06 | 0.06 | 60 | 1016.1 |
| 20260503174026 | 52 | 296 | 7.0 | 14.0 | 0.00 | 0.06 | 0.06 | 59 | 1016.0 |
| 20260503173526 | 52 | 314 | 8.0 | 14.0 | 0.00 | 0.06 | 0.06 | 59 | 1015.9 |
| 20260503173053 | 52 | 331 | 6.0 | 13.0 | 0.00 | 0.06 | 0.06 | 59 | 1015.9 |
| 20260503172526 | 52 | 321 | 6.0 | 13.0 | 0.00 | 0.06 | 0.06 | 59 | 1015.8 |
| 20260503172027 | 52 | 313 | 4.0 | 12.0 | 0.00 | 0.06 | 0.06 | 60 | 1015.8 |
| 20260503171539 | 52 | 320 | 6.0 | 12.0 | 0.00 | 0.06 | 0.06 | 60 | 1015.8 |
| 20260503171027 | 52 | 317 | 6.0 | 12.0 | 0.00 | 0.06 | 0.06 | 59 | 1015.7 |
| 20260503170527 | 52 | 333 | 7.0 | 18.0 | 0.00 | 0.06 | 0.06 | 59 | 1015.6 |
| 20260503150526 | 55 | 5 | 12.0 | 23.0 | 0.00 | 0.06 | 0.06 | 48 | 1014.7 |
| 20260503131027 | 53 | 355 | 12.0 | 20.0 | 0.00 | 0.06 | 0.06 | 56 | 1015.0 |
| 20260503130526 | 54 | 317 | 6.0 | 17.0 | 0.00 | 0.06 | 0.06 | 55 | 1014.9 |
| 20260503110526 | 51 | 314 | 10.0 | 22.0 | 0.00 | 0.06 | 0.06 | 61 | 1015.1 |
| 20260503081536 | 52 | 5 | 7.0 | 17.0 | 0.00 | 0.06 | 0.06 | 64 | 1014.6 |
| 20260503081026 | 51 | 355 | 10.0 | 17.0 | 0.00 | 0.06 | 0.06 | 64 | 1014.5 |
| 20260503080526 | 51 | 338 | 9.0 | 17.0 | 0.00 | 0.06 | 0.06 | 64 | 1014.7 |
| 20260503072529 | 49 | 301 | 2.0 | 9.0 | 0.00 | 0.06 | 0.06 | 75 | 1014.5 |
| 20260503072025 | 48 | 245 | 4.0 | 9.0 | 0.00 | 0.06 | 0.06 | 75 | 1014.5 |
| 20260503071537 | 48 | 236 | 3.0 | 10.0 | 0.00 | 0.06 | 0.06 | 76 | 1014.4 |
| 20260503071026 | 48 | 292 | 4.0 | 10.0 | 0.00 | 0.06 | 0.06 | 76 | 1014.7 |
| 20260503070526 | 47 | 263 | 3.0 | 9.0 | 0.00 | 0.06 | 0.06 | 77 | 1014.8 |